TimeCET,TemperatureF,Dew PointF,Humidity,Sea Level PressureIn,VisibilityMPH,Wind Direction,Wind SpeedMPH,Gust SpeedMPH,PrecipitationIn,Events,Conditions,WindDirDegrees,DateUTC
12:55 AM,62.6,60.8,94,29.92,6.2,WNW,10.4,-,N/A,,Partly Cloudy,300,2012-11-03 23:55:00
1:00 AM,63,61,89,29.93,12,WNW,10.4,,,,Scattered Clouds,300,2012-11-04 00:00:00
1:55 AM,62.6,59.0,88,29.92,6.2,SW,9.2,-,N/A,,Partly Cloudy,230,2012-11-04 00:55:00
2:55 AM,62.6,57.2,82,29.89,6.2,SW,10.4,-,N/A,,Partly Cloudy,230,2012-11-04 01:55:00
3:55 AM,64.4,59.0,83,29.86,6.2,SW,15.0,-,N/A,,Partly Cloudy,220,2012-11-04 02:55:00
4:55 AM,64.4,60.8,88,29.86,6.2,SW,15.0,-,N/A,,Partly Cloudy,220,2012-11-04 03:55:00
5:55 AM,64.4,60.8,88,29.86,6.2,SSW,16.1,-,N/A,,Partly Cloudy,210,2012-11-04 04:55:00
6:55 AM,64.4,60.8,88,29.86,6.2,SSW,17.3,-,N/A,,Scattered Clouds,210,2012-11-04 05:55:00
7:00 AM,64,61,88,29.87,12,SSW,17.3,,,,Partly Cloudy,210,2012-11-04 06:00:00
7:55 AM,66.2,62.6,88,29.86,6.2,SSW,18.4,-,N/A,,Scattered Clouds,210,2012-11-04 06:55:00
8:55 AM,68.0,60.8,78,29.86,6.2,SW,19.6,-,N/A,,Scattered Clouds,220,2012-11-04 07:55:00
9:55 AM,78.8,69.8,74,29.86,6.2,West,13.8,-,N/A,,Partly Cloudy,270,2012-11-04 08:55:00
10:55 AM,75.2,71.6,89,29.86,6.2,SW,18.4,31.1,N/A,,Scattered Clouds,220,2012-11-04 09:55:00
11:55 AM,80.6,69.8,70,29.83,6.2,SW,18.4,-,N/A,,Scattered Clouds,220,2012-11-04 10:55:00
12:55 PM,80.6,69.8,70,29.80,6.2,SW,19.6,-,N/A,,Scattered Clouds,220,2012-11-04 11:55:00
1:00 PM,71,63,69,29.81,12,SW,19.6,,,,Partly Cloudy,220,2012-11-04 12:00:00
1:55 PM,71.6,62.6,73,29.80,6.2,SSW,17.3,-,N/A,,Scattered Clouds,200,2012-11-04 12:55:00
2:55 PM,69.8,62.6,78,29.80,6.2,South,16.1,-,N/A,,Scattered Clouds,190,2012-11-04 13:55:00
3:55 PM,73.4,62.6,69,29.80,6.2,SW,17.3,-,N/A,,Scattered Clouds,230,2012-11-04 14:55:00
4:55 PM,73.4,62.6,69,29.80,6.2,WSW,11.5,-,N/A,,Scattered Clouds,240,2012-11-04 15:55:00
5:55 PM,73.4,62.6,69,29.80,6.2,WSW,13.8,-,N/A,,Scattered Clouds,240,2012-11-04 16:55:00
6:55 PM,71.6,62.6,73,29.80,6.2,West,17.3,29.9,N/A,,Scattered Clouds,260,2012-11-04 17:55:00
7:00 PM,72,62,63,29.80,6,West,17.3,,,,Partly Cloudy,260,2012-11-04 18:00:00
7:55 PM,71.6,62.6,73,29.80,6.2,SW,19.6,31.1,N/A,,Scattered Clouds,230,2012-11-04 18:55:00
8:55 PM,71.6,60.8,69,29.80,6.2,WSW,19.6,31.1,N/A,,Scattered Clouds,240,2012-11-04 19:55:00
9:55 PM,71.6,60.8,69,29.77,6.2,WSW,21.9,34.5,N/A,,Scattered Clouds,240,2012-11-04 20:55:00
10:55 PM,71.6,60.8,69,29.77,6.2,WSW,23.0,-,N/A,,Scattered Clouds,240,2012-11-04 21:55:00
11:55 PM,73.4,60.8,65,29.74,6.2,SW,20.7,-,N/A,,Scattered Clouds,230,2012-11-04 22:55:00